Regional Weather Roundup
Issued by NWS

Home | Current Version | Previous Version | Graphics & Text | Print | Product List | Glossary On
Versions: 1 2 3 4 5 6 7 8 9 10 11 12 13 14 15 16 17 18 19 20 21 22 23 24 25 26 27 28 29 30 31 32 33 34 35 36 37 38 39 40 41 42 43 44 45 46 47 48 49 50
000
ASUS43 KMKX 242200
RWRWI

WISCONSIN REGIONAL WEATHER ROUNDUP
NATIONAL WEATHER SERVICE MILWAUKEE/SULLIVAN WI
400 PM CST FRI FEB 24 2017

NOTE: "FAIR" INDICATES FEW OR NO CLOUDS BELOW 12,000 FEET WITH NO
SIGNIFICANT WEATHER AND/OR OBSTRUCTIONS TO VISIBILITY.

WIZ001-002-006>008-014>016-023>028-242300-
NORTHWEST WISCONSIN

CITY           SKY/WX    TMP DP  RH WIND       PRES   REMARKS
SUPERIOR ARPT  CLOUDY    24  11  58 N12       29.89F WCI  13
ASHLAND        CLOUDY    19  12  74 N15G25    29.88R WCI   5
HAYWARD        FLURRIES  20  12  71 N18G25    29.80F WCI   5
SIREN          CLOUDY    23  12  61 N15       29.84S WCI  10
CUMBERLAND     CLOUDY    21  12  68 N17G26    29.77S WCI   7
RICE LAKE      LGT SNOW  23  16  74 N22G28    29.78S WCI   8
CHETEK         LGT SNOW  23  17  79 N13G25    29.76S WCI  11
LADYSMITH      LGT SNOW  23  17  78 N15G25    29.74S WCI  10
EAU CLAIRE     NOT AVBL
MENOMONIE      LGT SNOW  25  18  77 N20G25    29.75R WCI  10
NEW RICHMOND   CLOUDY    25  16  68 N20G29    29.79S WCI  11
OSCEOLA        CLOUDY    26  14  60 N17G24    29.84F WCI  13
$$

WIZ003>005-009-010-017-018-242300-
NORTH CENTRAL WISCONSIN

CITY           SKY/WX    TMP DP  RH WIND       PRES   REMARKS
MANITOWISH WTR LGT SNOW  18  15  90 N14G23    29.71R VSB 1   WCI   4
ARBOR VITAE    LGT SNOW  22  17  80 N13G22      N/A  WCI  10
WOODRUFF       LGT SNOW  22  17  80 N13G22      N/A  WCI  10
RHINELANDER    MIX PCPN  21  14  74 N10G23    29.66R WCI  10
EAGLE RIVER    LGT SNOW  19  13  77 N13G24    29.68R WCI   5
LAND O LAKES   FLURRIES  19  14  80 N15G21    29.71S WCI   5
PHILLIPS       LGT SNOW  20  14  76 N21G30    29.70R WCI   4
TOMAHAWK       CLOUDY    21  15  76 N9G20     29.68R WCI  11
MEDFORD        CLOUDY    23  16  77 N15G24    29.65S WCI  10
MERRILL        NOT AVBL
$$

WIZ029-030-035-036-043>047-242300-
CENTRAL WISCONSIN

CITY           SKY/WX    TMP DP  RH WIND       PRES   REMARKS
WAUSAU         CLOUDY    24  17  74 N13       29.63R WCI  12
MOSINEE        LGT SNOW  25  21  86 N16G23    29.64R WCI  12
MARSHFIELD     FLURRIES  25  17  72 N10G22    29.62F WCI  15
STEVENS POINT  CLOUDY    23  20  89 N10       29.63S WCI  13
WAUPACA        CLOUDY    28  24  86 N9        29.62R FOG     WCI  19
WAUTOMA        FRZ RAIN  27  24  89 N14       29.60F FOG     WCI  16
WISC RAPIDS    LGT SNOW  25  23  92 N14G21    29.63F FOG     WCI  13
CAMP DOUGLAS   FRZ DRZL  27  23  86 N6        29.63S WCI  20
$$

WIZ011>013-019>022-031-037>040-048>050-242300-
NORTHEAST WISCONSIN

CITY           SKY/WX    TMP DP  RH WIND       PRES   REMARKS
ANTIGO         CLOUDY    22  19  88 N15G21    29.62S FOG     WCI   8
SHAWANO        CLOUDY    28  25  88 N14G24    29.62S FOG     WCI  17
OCONTO         CLOUDY    26  24  90 N10G22    29.61S WCI  16
STURGEON BAY   MIX PCPN  28  26  92 N17G29    29.58S FOG     WCI  16
GREEN BAY      LGT SNOW  28  27  96 N18       29.58S FOG     WCI  15
MANITOWOC      NOT AVBL
APPLETON       CLOUDY    27  27 100 N17G23    29.56R FOG     WCI  14
CLINTONVILLE   MIX PCPN  27  23  86 N17G23    29.61S WCI  14
OSHKOSH        FRZ RAIN  28  25  88 N22       29.57S FOG     WCI  14
$$

WIZ032>034-041-042-053>061-242300-
SOUTHWEST WISCONSIN

CITY           SKY/WX    TMP DP  RH WIND       PRES   REMARKS
LA CROSSE      FLURRIES  29  24  82 N14       29.69R WCI  18
SPARTA         PTSUNNY   27  24  88 N10G17    29.66S WCI  18
VIROQUA        CLOUDY    26  24  92 N12G17    29.62R WCI  16
BOSCOBEL       CLOUDY    30  25  81 N7        29.63S WCI  23
PRAIRIE DU CHI CLOUDY    30  27  88 N8        29.64R WCI  23
PLATTEVILLE    CLOUDY    30  30 100 N9        29.58R WCI  22
$$

WIZ056-057-062-063-064-067-068-242300-
SOUTH CENTRAL WISCONSIN

CITY           SKY/WX    TMP DP  RH WIND       PRES   REMARKS
REEDSBURG      CLOUDY    27  26  96 N10       29.60S FOG     WCI  17
BARABOO/DELLS  CLOUDY    28  26  94 N8        29.59S FOG     WCI  19
LONE ROCK      FRZ RAIN  30  25  81 N13       29.61R WCI  20
MINERAL POINT  CLOUDY    32  32 100 N5        29.56R FOG     WCI  27
MADISON        FRZ DRZL  28  26  92 N20       29.57R FOG     WCI  15
MIDDLETON      CLOUDY    30  30  99 N7        29.56S WCI  23
WATERTOWN      CLOUDY    29  29 100 N12G20    29.53R FOG     WCI  20
MONROE         CLOUDY    30  30 100 N15G24    29.54R FOG     WCI  19
JANESVILLE     CLOUDY    34  34 100 N12G17    29.53R FOG     WCI  25
$$

WIZ051-052-058>065-066-070>072-242300-
SOUTHEAST WISCONSIN

CITY           SKY/WX    TMP DP  RH WIND       PRES   REMARKS
MILWAUKEE      CLOUDY    36  33  89 N20G25    29.48S FOG     WCI  25
WAUKESHA       CLOUDY    32  30  93 N14       29.51S FOG     WCI  22
MILWAUKEE/TIMM CLOUDY    34  30  86 N14G20    29.50S FOG     WCI  24
RACINE         LGT RAIN  36  33  89 N17G26    29.48F FOG     WCI  26
KENOSHA        CLOUDY    36  34  92 N9        29.48S FOG     WCI  29
FOND DU LAC    LGT SNOW  29  25  85 N17G28    29.56F FOG     WCI  17
SHEBOYGAN      CLOUDY    30  28  92 N13G23    29.51S FOG     WCI  20
WEST BEND      LGT SNOW  32  32 100 N3        29.51S
JUNEAU         CLOUDY    28  26  94 N9        29.55R FOG     WCI  19
$$

LSZ147-162-242300-
LAKE SUPERIOR

STATION/POSITION TIME  TEMP    WIND        PRES    WAVE
                       AIR SEA DIR/SP/G            HT/PER
                 (UTC) (F)     (DEG/KT/KT) (MB)    (FT/S)
DEVILS ISLAND    2100   18      30/ 14/ 17 1013.8F
PORT WING        2140   22      40/ 14/ 17 1012.5F
SAXON HARBOR     2130   22      20/ 23/ 26 1010.8S
$$

LMZ867-665-643>646-242300-
LAKE MICHIGAN

STATION/POSITION TIME  TEMP    WIND        PRES    WAVE
                       AIR SEA DIR/SP/G            HT/PER
                 (UTC) (F)     (DEG/KT/KT) (MB)    (FT/S)
NORTHPORT PIER   2140   28      10/  3/  4 1003.0F
SISTER BAY       2105   28      40/ 17/ 23   N/A
KEWAUNEE LAKESHO 2130   29      10/ 11/ 19 1000.5F
SHEBOYGAN LAKESH 2100   33      10/ 29/ 33  999.5F
PORT WASHINGTON  2140   34     360/  8/ 16 1000.3S
MILWAUKEE LAKESH 2130   35      10/ 16/ 22   N/A
KENOSHA   LAKESH 2100   36     360/ 14/ 17  998.6
$$

TC  - TEMPERATURE IN CELSIUS
VSB - VISIBILITY IN STATUTE MILES
WCI - WIND CHILL INDEX
HX  - HEAT INDEX





USA.gov is the U.S. government's official web portal to all federal, state and local government web resources and services.